Погода в Энде

Индонезия     8°50′28″S   121°39′32″E
темп.,
°C
ветер,
м/с
пор.,
м/с
влажн.,
%
обл.,
%
осадки,
мм/ч
давл.,
гПа
погр.,
м
20 января, чт
чт2023:00+19ю1191100 0.0 101027
02:00+19ююз1194100 0.2 100945
05:00+19ююз1192100 0.2 100946
08:00+20ююз2496100 0.8 1010186
11:00+21ююз3593100 1.2 1010530
14:00+20юз2496100 2.6 1008347
17:00+21ююз2596100 0.7 1008392
20:00+20ююз2497100 1.1 1010201
21 января, пт
пт2123:00+20ю1294100 0.1 101173
02:00+19ююз1193100 0.3 100855
05:00+20юз1395100 0.1 1008131
08:00+22юз268795 0.2 1010582
11:00+24юз367495 0.0 1009921
14:00+23юз3485100 1.1 1007670
17:00+21юз2695100 2.5 1008479
20:00+21юз2698100 4.4 1009349
22 января, сб
сб2223:00+21ююз129792 1.6 1009147
02:00+20зсз1195100 1.9 100740
05:00+20ююз1398100 0.1 1007182
08:00+21юз1396100 0.4 1009254
11:00+21зсз1194100 0.4 1008168
14:00+21з1193100 0.8 1006103
17:00+21з1192100 0.1 1006114
20:00+20ююз1296100 0.6 100767
23 января, вс
вс2323:00+20ююз1397100 1.3 1008126
02:00+20ю1197100 1.7 100683
05:00+20ссз1194100 0.1 100627
08:00+22ссз1291100 0.1 100898
11:00+23ссз2387100 0.9 1007386
14:00+24зсз2387100 3.7 1005587
17:00+23ссз1392100 2.9 1005347
20:00+21ссв2398100 3.4 1007147
24 января, пн
пн2423:00+20ссв2398100 0.2 1008132
02:00+20с2498100 0.4 1005141
05:00+20с359794 0.3 1006203
08:00+22с2492100 0.3 1007374
11:00+26ссз3768100 0.1 10061128
14:00+26ссз3771100 0.6 10031063
17:00+23с358497 0.6 1004583
20:00+21с2595100 0.9 1006234